[Iaude] MPEC M119: 2024 MM1 [a=1.02,e=0.07,i=4.5,H=26.2]
    mpec at cfa.harvard.edu 
    mpec at cfa.harvard.edu
       
    Sun Jun 30 04:20:00 EDT 2024
    
    
  
M.P.E.C. 2024-M119                                Issued 2024 June 30, 08:18 UT
     The Minor Planet Electronic Circulars contain information on unusual
         minor planets, routine data on comets and natural satellites,
         and occasional editorial announcements.  They are published
    on behalf of Division F of the International Astronomical Union by the
          Minor Planet Center, Smithsonian Astrophysical Observatory,
                          Cambridge, MA 02138, U.S.A.
			  
             Prepared using the Tamkin Foundation Computer Network
                              MPC at CFA.HARVARD.EDU
            URL https://www.minorplanetcenter.net/    ISSN 1523-6714
                                    2024 MM1                                    
Observations:
     K24M01M  C2024 06 28.34740614 47 52.175+20 34 21.56         21.72GVEM119F51
     K24M01M* C2024 06 28.36057314 47 58.068+20 34 20.97         21.52wXEM119F51
     K24M01M  C2024 06 28.37376414 48 03.992+20 34 20.15         21.56wXEM119F51
     K24M01M  C2024 06 28.38694014 48 09.981+20 34 18.66         21.18GVEM119F51
     K24M01M KC2024 06 28.46266314 48 45.493+20 34 05.00         22.37GVEM119F51
     K24M01M 3C2024 06 29.38591714 56 37.878+20 35 35.71         21.37GVEM119T14
     K24M01M 3C2024 06 29.38689214 56 38.293+20 35 35.49         21.38GVEM119T14
     K24M01M 3C2024 06 29.38787714 56 38.708+20 35 35.26         21.28GVEM119T14
     K24M01M KC2024 06 30.31403 15 04 01.24 +20 33 57.8          21.9 GVEM119291
     K24M01M KC2024 06 30.32069 15 04 04.05 +20 33 55.3          22.1 GVEM119291
Observer details:
291 LPL/Spacewatch II.  Observer R. A. Mastaler.  1.8-m f/2.7 reflector + CCD.
F51 Pan-STARRS 1, Haleakala.  Observers J. Herman, T. Lowe, P. Minguez, A.
    Schultz, I. Smith.  Measurers K. Chambers, T. de Boer, J. Fairlamb, H.
    Gao, M. Huber, C.-C. Lin, E. Magnier, Y. Ramanjooloo, R. Wainscoat, R.
    Weryk.  1.8-m Ritchey-Chretien + CCD.
T14 Canada-France-Hawaii Telescope, Maunakea.  Observers R. Wainscoat, A.
    Acohido, T. Burdullis.  Measurers R. Weryk, R. Wainscoat.  3.6-m f/4.1
    reflector + CCD.
Orbital elements:
2024 MM1                                                 Earth MOID = 0.0038 AU
Epoch 2024 Mar. 31.0 TT = JDT 2460400.5                 MPC                     
M   7.76370              (2000.0)            P               Q                  
n   0.95223967     Peri.  276.69524     -0.99226605     -0.09793477             
a   1.0232267      Node   257.70451     +0.11978068     -0.91665346             
e   0.0690300      Incl.    4.47700     -0.03256792     -0.38749865             
P   1.04           H   26.23          G   0.15           U   7                  
Residuals in seconds of arc
240628 F51  0.1-  0.0     240628 F51  0.0   0.6+    240630 291  0.1+  0.1-
240628 F51  0.1+  0.1-    240629 T14  0.0   0.0     240630 291  0.1-  0.0
240628 F51  0.1-  0.0     240629 T14  0.0   0.0
240628 F51  0.1+  0.1-    240629 T14  0.0   0.0
Ephemeris:
2024 MM1                 a,e,i = 1.02, 0.07, 4                   q = 0.9526
Date    TT    R. A. (2000) Decl.     Delta      r    Elong.  Phase     V
2024 05 31    08 46 38.6 -02 30 43   0.04006 0.9987    66.7   111.2    23.5
...
2024 06 15    11 59 11.7 +13 59 19   0.03000 1.0162    90.1    88.2    21.8
...
2024 06 23    13 52 47.7 +19 37 29   0.03553 1.0258   104.5    73.6    21.6
...
2024 06 29    14 53 33.1 +20 35 34   0.04324 1.0329   111.0    66.8    21.8
2024 06 30    15 01 42.7 +20 35 27   0.04471 1.0341   111.8    65.9    21.9
2024 07 01    15 09 23.6 +20 33 23   0.04622 1.0352   112.5    65.1    21.9
...
2024 07 07    15 47 18.5 +19 51 39   0.05597 1.0422   115.7    61.5    22.3
...
2024 07 15    16 23 11.6 +18 14 25   0.07017 1.0511   117.9    58.7    22.7
...
2024 07 30    17 08 56.8 +14 30 21   0.09883 1.0665   118.9    56.4    23.4
A. U. Tomatic                (C) Copyright 2024 MPC           M.P.E.C. 2024-M119
    
    
More information about the Iaude
mailing list